Location: Haulchin
(50.3172°N, 3.4360°E)
Time: 21:25:37
(UTC+00:00)

Cosmos 2333 Rocket - Pass Details

Date: 12 August 2024
Orbit: 838 x 863 km, 70.8° (Epoch: 09 September)

Event Time Altitude Azimuth Distance (km) Brightness Sun altitude
Exits shadow 02:39:18 - 272° (W) 2,689 4.4 -15.2°
Reaches altitude 10° 02:39:59 10° 277° (W) 2,503 4.3 -15.1°
Maximum altitude 02:44:12 21° 325° (NW) 1,874 4.1 -14.6°
Drops below altitude 10° 02:48:27 10° 12° (NNE) 2,515 5.6 -14.2°
Sets 02:51:37 0° 29° (NNE) 3,455 7.0 -13.8°
